WetterOnline ( https://www.wetteronline.de )

Wetter aktuell Niederstetten

Aktuelles Wetter: Niederstetten (468m)

6-stündlich | Neueste Meldungen
Ortszeit Temperatur Wetter
Do, 23.05. 20:00 16.3° C bedeckt
Do, 23.05. 14:00 19.4° C leicht bewölkt
Do, 23.05. 8:00 12.6° C fast wolkenlos
Do, 23.05. 2:00 11.1° C wolkenlos
Mi, 22.05. 20:00 15.4° C bewölkt
Mi, 22.05. 14:00 15.8° C bewölkt
Mi, 22.05. 8:00 12.5° C bewölkt
Mi, 22.05. 2:00 12.5° C bewölkt
Ortszeit Temperatur Wetter
Fr, 24.05. 0:00 11.8° C Regen
Do, 23.05. 23:00 12.0° C leichter Regen
Do, 23.05. 22:00 12.3° C leichte Gewitter
Do, 23.05. 21:00 13.2° C Gewitter
Do, 23.05. 20:00 16.3° C bedeckt, nach Regen
Do, 23.05. 19:00 18.5° C leichter Regen
Do, 23.05. 18:00 19.0° C wolkig
Ortszeit Relative Feuchte Sichtweite
Do, 23.05. 20:00 71% 30 km
Do, 23.05. 14:00 48% 50 km
Do, 23.05. 8:00 85% 35 km
Do, 23.05. 2:00 92% 60 km
Mi, 22.05. 20:00 76% 60 km
Mi, 22.05. 14:00 71% 50 km
Mi, 22.05. 8:00 88% 40 km
Mi, 22.05. 2:00 94% 15 km
Ortszeit Relative Feuchte Sichtweite
Fr, 24.05. 0:00 97% 4.5 km
Do, 23.05. 23:00 95% 8 km
Do, 23.05. 22:00 95% 8 km
Do, 23.05. 21:00 94% 10 km
Do, 23.05. 20:00 71% 30 km
Do, 23.05. 19:00 51% 30 km
Do, 23.05. 18:00 44% 40 km
Ortszeit Niederschlagsmenge Niederschlagsart
Do, 23.05. 20:00 0.0 l/m2 in 12 Std. Regen
Do, 23.05. 14:00 keine Meldung -
Do, 23.05. 8:00 0.0 l/m2 in 12 Std. -
Do, 23.05. 2:00 keine Meldung -
Mi, 22.05. 20:00 0.1 l/m2 in 12 Std. -
Mi, 22.05. 14:00 keine Meldung -
Mi, 22.05. 8:00 0.0 l/m2 in 12 Std. -
Mi, 22.05. 2:00 keine Meldung -
Ortszeit Niederschlagsmenge Niederschlagsart
Fr, 24.05. 0:00 keine Meldung -
Do, 23.05. 23:00 keine Meldung -
Do, 23.05. 22:00 keine Meldung -
Do, 23.05. 21:00 keine Meldung -
Do, 23.05. 20:00 keine Meldung -
Do, 23.05. 19:00 keine Meldung -
Do, 23.05. 18:00 keine Meldung -
Ortszeit Stärke Spitze Richtung
km/h Bft. km/h Grad Sektor
Do, 23.05. 20:00 11 2 - 280° W
Do, 23.05. 14:00 7 2 - 330° NW
Do, 23.05. 8:00 4 1 - 240° SW
Do, 23.05. 2:00 7 2 - 250° W
Mi, 22.05. 20:00 18 3 - 260° W
Mi, 22.05. 14:00 22 4 - 270° W
Mi, 22.05. 8:00 22 4 - 260° W
Mi, 22.05. 2:00 11 2 - 250° W
Ortszeit Stärke Spitze Richtung
km/h Bft. km/h Grad Sektor
Fr, 24.05. 0:00 11 2 - 260° W
Do, 23.05. 23:00 14 3 - 200° S
Do, 23.05. 22:00 14 3 - 250° W
Do, 23.05. 21:00 11 2 - 210° SW
Do, 23.05. 20:00 11 2 - 280° W
Do, 23.05. 19:00 7 2 - 360° N
Do, 23.05. 18:00 11 2 - 10° N
Ortszeit Untergrenze Bedeckung Gattung
total tief tief mittel hoch
Do, 23.05. 20:00 2100 m 8/8 7/8 Cb - -
Do, 23.05. 14:00 1200 m 6/8 2/8 Cu Ac Ci
Do, 23.05. 8:00 1800 m 1/8 1/8 Sc - Ci
Do, 23.05. 2:00 - 0/8 0/8 - - -
Mi, 22.05. 20:00 600 m 7/8 1/8 Cu As Ci
Mi, 22.05. 14:00 600 m 7/8 3/8 Cu Ac Ci
Mi, 22.05. 8:00 300 m 8/8 6/8 Sc Ns -
Mi, 22.05. 2:00 210 m 8/8 6/8 St Ns -
Ortszeit Bedeckungsgrad in Achtel und Wolkenuntergrenze
Fr, 24.05. 0:00 1(150m) 8(1500m)
Do, 23.05. 23:00 3(180m) 8(1350m)
Do, 23.05. 22:00 1(240m) 7(1500m) 1(600m)
Do, 23.05. 21:00 1(240m) 7(1350m) 3(450m)
Do, 23.05. 20:00 7(2100m)
Do, 23.05. 19:00 5(2700m)
Do, 23.05. 18:00 5(2400m)
Ortszeit Luftdruck NN (hPa) Tendenz (hPa in 3 Std.)
Do, 23.05. 20:00 1015 + 0,5
Do, 23.05. 14:00 1014 - 0,6
Do, 23.05. 8:00 1016 + 0,8
Do, 23.05. 2:00 1016 + 0,4
Mi, 22.05. 20:00 1012 + 0,7
Mi, 22.05. 14:00 1011 + 0,8
Mi, 22.05. 8:00 1010 + 1,3
Mi, 22.05. 2:00 1008 + 0,6
Ortszeit Luftdruck NN (hPa) Tendenz (hPa in 3 Std.)
Fr, 24.05. 0:00 1018 + 0,6
Do, 23.05. 23:00 1018 + 2,3
Do, 23.05. 22:00 1017 + 1,8
Do, 23.05. 21:00 1017 + 1,8
Do, 23.05. 20:00 1015 + 0,5
Do, 23.05. 19:00 1014 - 0,1
Do, 23.05. 18:00 1014 - 0,4
Ortszeit Schneehöhe (cm)
Do, 23.05. 20:00 0
Do, 23.05. 14:00 -
Do, 23.05. 8:00 0
Do, 23.05. 2:00 -
Mi, 22.05. 20:00 0
Mi, 22.05. 14:00 -
Mi, 22.05. 8:00 0
Mi, 22.05. 2:00 -
Ortszeit Schneehöhe (cm)
Fr, 24.05. 0:00 -
Do, 23.05. 23:00 -
Do, 23.05. 22:00 -
Do, 23.05. 21:00 -
Do, 23.05. 20:00 0
Do, 23.05. 19:00 -
Do, 23.05. 18:00 -
Link zu dieser Seite / Seite empfehlen

Das Wetter in ...